This is the latest recevied weather packets stored in our database for station/object NorthRyde. If no packets are shown the sender has not sent any weather packets the latest 10 day(s).
| Time | Temp. | Humidity | Pressure | Rain* | Wind** | Luminosity | Snow |
|---|---|---|---|---|---|---|---|
| 1778125832 | 17.22° C | 30% | 1015.2 hPa | 0 mm | - | 497 W/m² | - |
| 1778125804 | 17.22° C | 29% | 1015.2 hPa | 0 mm | - | 499 W/m² | - |
| 1778125769 | 17.22° C | 29% | 1015.3 hPa | 0 mm | - | 499 W/m² | - |
| 1778125596 | 17.22° C | 29% | 1015.1 hPa | 0 mm | - | 501 W/m² | - |
| 1778125530 | 17.22° C | 29% | 1015.1 hPa | 0 mm | - | 506 W/m² | - |
| 1778125472 | 17.22° C | 29% | 1015.1 hPa | 0 mm | - | 508 W/m² | - |
| 1778125411 | 17.22° C | 29% | 1015.2 hPa | 0 mm | - | 506 W/m² | - |
| 1778125350 | 17.78° C | 30% | 1015.1 hPa | 0 mm | - | 512 W/m² | - |
| 1778125286 | 17.22° C | 31% | 1015 hPa | 0 mm | - | 508 W/m² | - |
| 1778125224 | 17.22° C | 31% | 1014.9 hPa | 0 mm | - | 512 W/m² | - |
| 1778125162 | 17.22° C | 31% | 1015.1 hPa | 0 mm | - | 512 W/m² | - |
| 1778125100 | 17.22° C | 30% | 1014.9 hPa | 0 mm | - | 512 W/m² | - |
| 1778125039 | 17.78° C | 30% | 1015 hPa | 0 mm | - | 513 W/m² | - |
| 1778124976 | 17.78° C | 30% | 1015.1 hPa | 0 mm | - | 519 W/m² | - |
| 1778124915 | 17.78° C | 30% | 1014.9 hPa | 0 mm | - | 522 W/m² | - |
| 1778124851 | 17.78° C | 30% | 1014.9 hPa | 0 mm | - | 522 W/m² | - |
| 1778124814 | 17.78° C | 30% | 1015 hPa | 0 mm | - | 520 W/m² | - |
| 1778124737 | 17.78° C | 30% | 1015 hPa | 0 mm | - | 522 W/m² | - |
| 1778124671 | 17.78° C | 29% | 1015 hPa | 0 mm | - | 524 W/m² | - |
| 1778124610 | 17.78° C | 30% | 1015 hPa | 0 mm | - | 527 W/m² | - |
| 1778124493 | 17.78° C | 30% | 1015 hPa | 0 mm | - | 533 W/m² | - |
| 1778124436 | 17.78° C | 30% | 1015 hPa | 0 mm | - | 533 W/m² | - |
| 1778124370 | 17.78° C | 30% | 1015 hPa | 0 mm | - | 536 W/m² | - |
| 1778124310 | 17.78° C | 30% | 1015 hPa | 0 mm | - | 541 W/m² | - |
| 1778124249 | 17.78° C | 30% | 1015 hPa | 0 mm | - | 540 W/m² | - |
* Rain latest hour (hover to see other rain measurements)
** Current wind speed in m/s (hover to see current wind gust speed)